Regional Weather Roundup
Issued by NWS Sioux Falls, SD

Home | Current Version | Previous Version | Graphics & Text | Print | Product List | Glossary On
Versions: 1 2 3 4 5 6 7 8 9 10 11 12 13 14 15 16 17 18 19 20 21 22 23 24 25 26 27 28 29 30 31 32 33 34 35 36 37 38 39 40 41 42 43 44 45 46 47 48 49 50
000
ASUS43 KFSD 260810
RWRFSD

WEATHER ROUNDUP FOR SE SOUTH DAKOTA/SW MINNESOTA/NW IOWA
NATIONAL WEATHER SERVICE SIOUX FALLS SD
300 AM CDT WED JUL 26 2017

NOTE: "FAIR" INDICATES FEW OR NO CLOUDS BELOW 12,000 FEET WITH NO
SIGNIFICANT WEATHER AND OR OBSTRUCTIONS TO VISIBILITY.


SDZ038>040-050-052>070-260900-
SOUTHEAST SOUTH DAKOTA

CITY           SKY/WX    TMP DP  RH WIND       PRES   REMARKS
BROOKINGS      CLOUDY    69  67  93 N5        29.99F
CHAMBERLAIN    DRIZZLE   72  71  99 NE5       29.98S
HURON          CLOUDY    70  69  97 CALM      29.96S
MADISON        CLOUDY    68  68 100 CALM      29.99S
MITCHELL       CLOUDY    71  68  90 N7        29.98R
SIOUX FALLS    LGT RAIN  72  72 100 S7        29.95F
WINNER         PTSUNNY   71  68  90 N7        29.97F
YANKTON        CLOUDY    71  70  96 S7        29.99F
$$

MNZ071-072-080-081-089-090-097-098-260900-
SOUTHWEST MINNESOTA

CITY           SKY/WX    TMP DP  RH WIND       PRES   REMARKS
FAIRMONT       CLOUDY    77  73  87 W7        29.97F
JACKSON        CLOUDY    75  72  88 CALM      29.98F
LUVERNE        LGT RAIN  68  64  88 S3        29.97F
MARSHALL       LGT RAIN  72  69  90 N10       29.98R
MONTEVIDEO     LGT RAIN  70  64  83 NE3       29.99F
PIPESTONE      CLOUDY    70  66  88 SE6       29.98R
REDWOOD FALLS  CLOUDY    72  68  87 N7        29.96F
TRACY          LGT RAIN  71  66  84 W5        29.94F
WINDOM         LGT RAIN  72  66  83 CALM      29.94F
WORTHINGTON    CLOUDY    70  67  90 S3        29.98F
$$

IAZ001>003-012>014-020>022-031-032-NEZ013-014-SDZ071-260900-
NORTHWEST IOWA

CITY           SKY/WX    TMP DP  RH WIND       PRES   REMARKS
DENISON        CLOUDY    79  75  89 S15       29.97S
ESTHERVILLE    CLOUDY    73  73 100 SW6       29.98S
ORANGE CITY    LGT RAIN  75  72  88 CALM      30.00S
SHELDON        LGT RAIN  73  68  83 N3        29.99R
SIOUX CITY     CLOUDY    78  72  81 N8        29.96S
SPENCER        CLOUDY    77  74  90 S6        29.99S
STORM LAKE     CLOUDY    77  73  88 W5G12     30.01R
$$

ABBREVIATIONS USED IN REMARKS
   TC - TEMPERATURE IN CELSIUS
  WCI - WIND CHILL INDEX
   HX - HEAT INDEX
  VSB - VISIBILITY





USA.gov is the U.S. government's official web portal to all federal, state and local government web resources and services.